{"data":{"norad_id":40358,"intl_designator":"2014-086A","name":"COSMOS 2502","alt_names":[],"object_type":"PAYLOAD","status":"ACTIVE","operator":null,"country":"CIS","launch_date":"2014-12-25","launch_site_code":"PLMSC","launch_vehicle":null,"mission":null,"orbit_class":"UNKNOWN","rcs_meters":12.9348,"size_class":null,"mass_kg":null,"dimensions":null,"purposes":[],"wikipedia_slug":null,"has_3d_model":false,"image_url":null,"decayed_at":null,"tle_current":{"epoch":"2026-05-25T04:11:57.517728Z","epoch_age_seconds":57066,"freshness":"FRESH","line1":"1 40358U 14086A   26145.17497127  .00000094  00000+0  11984-3 0  9993","line2":"2 40358  67.1533  63.2826 0008487 263.3804  96.6316 13.97820141580737","mean_motion":13.97820141,"eccentricity":0.0008487,"inclination_deg":67.1533,"raan_deg":63.2826,"arg_perigee_deg":263.3804,"mean_anomaly_deg":96.6316,"bstar":0.00011984,"rev_number":58073,"period_min":103.01754551697,"perigee_km":895.17531501596,"apogee_km":907.53152205238,"semimajor_km":7279.4904185342,"source":"CELESTRAK","updated_at":"2026-05-25T13:37:55.519019Z"}}}